Location: Sungai Igah
(2.7333°N, 114.2500°E)
Time: 18:00:09
(UTC+00:00)

Envisat - Pass Details

Date: 14 June 2021
Orbit: 764 x 766 km, 98.1° (Epoch: 25 July)

Event Time Altitude Azimuth Distance (km) Brightness Sun altitude
Rises 21:21:49 0° 13° (NNE) 3,214 6.8 -13.0°
Reaches altitude 10° 21:24:06 10° 13° (NNE) 2,290 6.0 -12.5°
Maximum altitude 21:29:10 85° 102° (ESE) 769 3.0 -11.3°
Drops below altitude 10° 21:34:14 10° 190° (S) 2,297 5.1 -10.2°
Sets 21:36:32 0° 191° (S) 3,224 5.9 -9.7°
